Regional Weather Roundup
Issued by NWS Northern Indiana

Home | Current Version | Previous Version | Text Only | Print | Product List | Glossary Off
Versions: 1 2 3 4 5 6 7 8 9 10 11 12 13 14 15 16 17 18 19 20 21 22 23 24 25 26 27 28 29 30 31 32 33 34 35 36 37 38 39 40 41 42 43 44 45 46 47 48 49 50

000
ASUS43 KIWX 201000
RWRIWX

KIWX WEATHER ROUNDUP
NATIONAL WEATHER SERVICE NORTHERN INDIANA
500 AM EST SAT JAN 20 2018

NOTE: "FAIR" INDICATES FEW OR NO CLOUDS BELOW 12,000 FEET WITH NO
SIGNIFICANT WEATHER AND/OR OBSTRUCTIONS TO VISIBILITY.

* THESE STATIONS ARE NOT UNDER NWS QUALITY CONTROL. THEY ALSO MAY NOT
  REPORT WEATHER SUCH AS PRECIPITATION OR FOG.

INZ001>027-201100-
NORTHERN INDIANA

CITY           SKY/WX    TMP DP  RH WIND       PRES   REMARKS
KNOX*          FAIR      32  28  86 SW14      29.88S WCI  22
SOUTH BEND     FAIR      31  25  78 SW15      29.86R WCI  20
GOSHEN         FAIR      32  24  72 SW15      29.86S WCI  22
MONTICELLO*    FAIR      32  24  73 SW13      29.91S WCI  22
FORT WAYNE     FAIR      33  24  69 SW15      29.91R WCI  23
PERU/GRISSOM   FAIR      31  26  80 SW16      29.91S WCI  20

$$
INZ028>050-201100-
CENTRAL INDIANA

CITY           SKY/WX    TMP DP  RH WIND       PRES   REMARKS
LAFAYETTE      FAIR      32  24  72 SW9       29.94S WCI  24
MUNCIE*        FAIR      35  22  58 SW15      29.94S WCI  25
INDIANAPOLIS   FAIR      33  23  66 SW15      29.98F WCI  23

$$
MIZ043>046-050>051-056>058-064>065-071>073-077>080-201100-
SOUTHWEST LOWER MICHIGAN

CITY           SKY/WX    TMP DP  RH WIND       PRES   REMARKS
BATTLE CREEK   FAIR      33  25  72 SW13      29.81R WCI  24
BENTON HARBOR  FAIR      39  26  59 SW20      29.83R
COLDWATER*     FAIR      32  25  74 SW14G20   29.83R WCI  22
HILLSDALE*     FAIR      34  25  69 SW14G22   29.81R WCI  24
HOLLAND        FAIR      37  30  75 SW18G24   29.79R
GRAND RAPIDS   FAIR      37  28  70 SW17      29.78R
KALAMAZOO      FAIR      35  25  66 SW15      29.82R WCI  25
THREE RIVERS*  FAIR      34  25  71 SW7       29.85R WCI  28

$$
OHZ001>008-015>018-024>025-201100-
NORTHWEST OHIO

CITY           SKY/WX    TMP DP  RH WIND       PRES   REMARKS
DEFIANCE       FAIR      32  22  66 SW13      29.89R WCI  22
FINDLAY        FAIR      34  22  61 SW15      29.90S WCI  24
TOLEDO EXPRESS FAIR      34  25  69 SW16G29   29.86R WCI  24
TOLEDO METCALF FAIR      32  24  72 SW13      29.88R WCI  22
LIMA           FAIR      33  24  69 SW16G25   29.92S WCI  23

$$
AND FOR LAKE MICHIGAN COASTAL AND OPEN LAKE BUOY OBSERVATIONS

STATION/POSITION TEMP    WIND        PRES    VSBY  WAVE
                 AIR SEA DIR/SP/G                  HT/PER
                 (F)     (DEG/KT/KT) (MB)    (MI)  (FT/S)
CALUMET HARBOR    36     200/ 13/ 18 1009.6R
MICHIGAN CITY     37     190/ 17/ 21   N/A
BURNS HARBOR      37     210/ 18/ 25 1011.5R
SAINT JOSEPH      35     210/ 12/ 16 1010.2

$$
&&




USA.gov is the U.S. government's official web portal to all federal, state and local government web resources and services.